Weather in Kelme

Lithuania     55˚37′56″N   22˚56′26″E
temp.,
°C
wind,
m/s
gust,
m/s
humid.,
%
clouds,
%
prec.,
mm/h
press.,
hPa
HPBL,
m
28 november, sat
sat2823:00+1˚nne479690 0.6 1017472
02:00n269376 0.8 1018232
05:00−1˚nne499038 0.0 1019574
08:00nne398447 0.0 1021620
11:00+2˚nne4988100 0.1 1021769
14:00+2˚nne598597 0.1 1021730
17:00+1˚nne489296 0.1 1021647
20:00+1˚ne599198 0.2 1022712
29 november, sun
sun2923:00ne499494 0.0 1023559
02:00e489197 0.3 1024522
05:00−1˚ene489357 0.1 1024442
08:00−1˚ene468873 0.1 1024526
11:00−1˚ne4688100 0.0 1024536
14:00ne4682100 0.1 1024709
17:00nne3683100 0.0 1022596
20:00−1˚nne379499 0.1 1023470
30 november, mon
mon3023:00−1˚n259594 0.3 1022278
02:00−2˚n239788 0.3 1022191
05:00−2˚n119789 0.0 102147
08:00−2˚w009781 0.1 102221
11:00−1˚sw128847 0.0 1022282
14:00−1˚sw348264 0.0 1022525
17:00−1˚ssw2589100 0.0 1022258
20:00−1˚ssw369599 0.4 1022358
1 december, tue
tue123:00−1˚ssw489590 0.1 1021355
02:00−1˚ssw599095 0.1 1022438
05:00−2˚ssw589596 0.0 1022348
08:00−1˚ssw589498 0.0 1023414
11:00−1˚ssw4792100 0.0 1024446
14:00ssw4687100 0.0 1025573
17:00ssw3688100 0.0 1025548
20:00−2˚s3793100 0.1 1026293
2 december, wed
wed223:00−1˚s3792100 0.1 1027363
02:00−2˚s3790100 0.1 1027332
05:00−3˚s369098 0.0 1026263
08:00−3˚sse369099 0.0 1027275
11:00−2˚sse4683100 0.0 1027338
14:00−1˚sse3681100 0.0 1026392
17:00−2˚sse368692 0.0 1025350
20:00−2˚sse378694 0.0 1025352